CW1936 Heraklion Crete GR current weather conditions

sailwx.info

Wind from 246

Air temperature 11.7° C
Dewpoint 11.2° C

Last reported at 2019-Dec-14 14:46 UTC.
Time now 2019-Dec-14 15:17 UTC

Location: N 35°22' E 025°02'.
View on Google Maps.

See reports from other nearby stations

  
Tides and Currents Weather Stations Pressure Air Temp Water Temp Dewpoint Dewpoint Depression Visibility Wind Speed Wind Dir Waves Ship Positions
date/time (UTC)wind fromknots sea level pressurealtimeterstation pressurevisibilityair tempwater tempwave heightnotes
2019-Dec-14 14:46 246 11.7
2019-Dec-14 14:31 270 0 gusting 2 12.2
2019-Dec-14 14:16 349 11.7
2019-Dec-14 14:01 147 12.2
2019-Dec-14 13:45 219 12.2
2019-Dec-14 13:30 252 12.2
2019-Dec-14 13:15 126 1 gusting 4 11.7
2019-Dec-14 13:00 250 11.7
2019-Dec-14 12:46 352 11.7
2019-Dec-14 12:31 238 11.7
2019-Dec-14 12:16 208 11.7
2019-Dec-14 12:01 268 0 gusting 5 12.2
2019-Dec-14 11:45 233 12.2
2019-Dec-14 11:30 213 12.2
2019-Dec-14 11:15 261 12.8
2019-Dec-14 11:00 227 0 gusting 4 12.2
2019-Dec-14 10:45 293 12.8
2019-Dec-14 10:30 326 0 gusting 11 13.9
2019-Dec-14 10:15 243 6 gusting 20 14.4
2019-Dec-14 10:00 172 5 gusting 13 14.4
2019-Dec-14 09:45 207 7 gusting 18 14.4
2019-Dec-14 09:30 124 5 gusting 19 13.9
2019-Dec-14 09:01 146 4 gusting 13 13.9
2019-Dec-14 08:47 155 2 gusting 13 13.9
2019-Dec-14 08:32 127 13.9
2019-Dec-14 08:16 234 4 gusting 14 16.1
2019-Dec-14 08:01 165 6 gusting 13 16.1
2019-Dec-14 07:49 210 2 gusting 8 16.7
2019-Dec-14 07:32 129 5 gusting 13 16.1
2019-Dec-14 07:16 128 0 gusting 11 16.1
2019-Dec-14 07:01 092 16.1
2019-Dec-14 06:47 120 1 gusting 10 15.6
2019-Dec-14 06:31 141 3 gusting 7 15.6
2019-Dec-14 06:16 124 15.6
2019-Dec-14 06:01 130 1 gusting 10 15.0
2019-Dec-14 05:45 153 3 gusting 7 15.0
2019-Dec-14 05:30 235 0 gusting 7 15.0
2019-Dec-14 05:15 226 0 gusting 4 14.4
2019-Dec-14 05:00 234 0 gusting 4 14.4
2019-Dec-14 04:45 101 13.3
2019-Dec-14 04:30 266 0 gusting 3 13.3
2019-Dec-14 04:16 249 1 gusting 4 12.8
2019-Dec-14 04:00 257 12.8
2019-Dec-14 03:46 263 12.8
2019-Dec-14 03:30 251 12.8
2019-Dec-14 03:15 228 12.2
2019-Dec-14 03:00 248 12.8
2019-Dec-14 02:45 257 12.2
2019-Dec-14 02:30 262 12.8
2019-Dec-14 02:17 241 13.3
2019-Dec-14 02:02 235 12.8
2019-Dec-14 01:47 252 0 gusting 2 12.8
2019-Dec-14 01:32 229 1 gusting 4 13.3
2019-Dec-14 01:17 134 13.3
2019-Dec-14 01:01 266 13.3
2019-Dec-14 00:46 249 0 gusting 3 12.8
2019-Dec-14 00:32 145 12.8
2019-Dec-14 00:17 233 12.8
2019-Dec-14 00:01 206 0 gusting 5 12.8
2019-Dec-13 23:47 127 0 gusting 2 12.2
2019-Dec-13 23:31 253 12.2
2019-Dec-13 23:17 262 12.2
2019-Dec-13 23:02 249 12.2
2019-Dec-13 22:48 255 12.2
2019-Dec-13 22:31 252 12.8
2019-Dec-13 22:15 259 13.9
2019-Dec-13 22:02 248 13.9
2019-Dec-13 21:46 255 13.9
2019-Dec-13 21:30 252 13.9
2019-Dec-13 21:16 236 13.9
2019-Dec-13 21:00 257 13.3
2019-Dec-13 20:45 252 13.3
2019-Dec-13 20:30 326 13.3
2019-Dec-13 20:16 285 13.3
2019-Dec-13 20:00 258 13.9
2019-Dec-13 19:46 238 13.3
2019-Dec-13 19:30 212 13.3
2019-Dec-13 19:15 200 13.9
2019-Dec-13 19:00 200 13.9
2019-Dec-13 18:45 264 13.9
2019-Dec-13 18:30 264 13.9
2019-Dec-13 18:15 264 13.9
2019-Dec-13 18:00 256 13.9
2019-Dec-13 17:45 235 13.9
2019-Dec-13 17:30 228 0 gusting 2 14.4
2019-Dec-13 17:16 101 14.4
2019-Dec-13 17:00 262 14.4
2019-Dec-13 16:45 262 14.4
2019-Dec-13 16:30 262 0 gusting 1 15.0
2019-Dec-13 16:15 211 15.0
2019-Dec-13 16:00 250 15.0
2019-Dec-13 15:45 236 0 gusting 2 15.0
2019-Dec-13 15:30 264 0 gusting 2 15.0
2019-Dec-13 15:15 236 15.0
2019-Dec-13 15:00 257 15.0
2019-Dec-13 14:45 257 15.6
2019-Dec-13 14:30 255 15.6
2019-Dec-13 14:15 250 16.1
2019-Dec-13 14:00 217 16.7
2019-Dec-13 13:45 217 16.7
2019-Dec-13 13:30 083 16.7
2019-Dec-13 13:01 019 16.7
2019-Dec-13 12:47 249 16.7
2019-Dec-13 12:32 259 0 gusting 5 16.7
2019-Dec-13 12:17 227 1 gusting 6 16.7
2019-Dec-13 12:01 131 0 gusting 6 16.1
2019-Dec-13 11:47 227 0 gusting 8 15.6
2019-Dec-13 11:31 257 6 gusting 11 16.7
2019-Dec-13 11:17 051 18.3
2019-Dec-13 11:03 242 18.9
2019-Dec-13 10:46 318 19.4
2019-Dec-13 10:31 304 18.9
2019-Dec-13 10:17 290 19.4
2019-Dec-13 10:02 067 18.3
2019-Dec-13 09:47 115 18.3
2019-Dec-13 09:32 072 1 gusting 4 18.9
2019-Dec-13 09:16 108 3 gusting 6 18.9
2019-Dec-13 09:01 108 3 gusting 8 18.9
2019-Dec-13 08:46 128 4 gusting 8 18.3
2019-Dec-13 08:31 106 3 gusting 8 18.3
2019-Dec-13 08:16 122 0 gusting 7 18.3
2019-Dec-13 08:01 101 2 gusting 6 17.8
2019-Dec-13 07:46 135 2 gusting 5 17.8
2019-Dec-13 07:31 271 17.8
2019-Dec-13 07:17 072 16.7
2019-Dec-13 07:01 218 17.2
2019-Dec-13 06:46 218 16.1
2019-Dec-13 06:31 109 15.6
2019-Dec-13 06:16 109 0 gusting 3 15.6
2019-Dec-13 06:01 250 13.9
2019-Dec-13 05:45 253 0 gusting 2 13.3
2019-Dec-13 05:30 255 12.8
2019-Dec-13 05:00 258 13.3
2019-Dec-13 04:45 249 0 gusting 2 13.3
2019-Dec-13 04:30 262 12.8
2019-Dec-13 04:16 214 12.8
2019-Dec-13 04:00 153 12.8
2019-Dec-13 03:45 243 12.8
2019-Dec-13 03:30 250 12.8
2019-Dec-13 03:17 250 12.2
2019-Dec-13 03:01 250 12.8
2019-Dec-13 02:47 271 12.2
2019-Dec-13 02:33 271 12.2
2019-Dec-13 02:17 271 11.7
2019-Dec-13 02:03 267 11.1
2019-Dec-13 01:47 266 11.7
2019-Dec-13 01:32 269 11.7
2019-Dec-13 01:19 261 0 gusting 1 11.1
2019-Dec-13 01:01 250 11.7
2019-Dec-13 00:47 260 12.2
2019-Dec-13 00:33 266 0 gusting 2 12.2
2019-Dec-13 00:16 245 11.7
2019-Dec-13 00:02 259 11.7
2019-Dec-12 23:46 269 0 gusting 1 11.7
2019-Dec-12 23:31 251 11.7
2019-Dec-12 23:16 248 12.2
2019-Dec-12 23:01 248 12.2
2019-Dec-12 22:46 266 12.2
2019-Dec-12 22:32 251 12.2
2019-Dec-12 22:16 248 12.2
2019-Dec-12 22:01 249 12.2
2019-Dec-12 21:46 255 12.8
2019-Dec-12 21:31 088 12.8
2019-Dec-12 21:15 221 12.8
2019-Dec-12 21:01 257 12.8
2019-Dec-12 20:46 267 12.8
2019-Dec-12 20:31 265 12.2
2019-Dec-12 20:16 252 12.2
2019-Dec-12 20:01 234 11.7
2019-Dec-12 19:45 257 12.2
2019-Dec-12 19:30 257 12.2
2019-Dec-12 19:16 270 12.2
2019-Dec-12 19:01 251 12.2
2019-Dec-12 18:45 233 12.2
2019-Dec-12 18:30 248 12.2
2019-Dec-12 18:15 289 12.2
2019-Dec-12 18:00 266 12.2
2019-Dec-12 17:46 254 12.2
2019-Dec-12 17:31 307 12.2
2019-Dec-12 17:15 269 12.2
2019-Dec-12 17:01 252 12.2
2019-Dec-12 16:45 248 12.2
2019-Dec-12 16:30 271 12.8
2019-Dec-12 16:16 271 12.8
2019-Dec-12 16:00 230 0 gusting 2 12.8
2019-Dec-12 15:46 323 13.3
2019-Dec-12 15:30 270 1 gusting 8 15.0
2019-Dec-12 15:16 264 15.6
2019-Dec-12 15:00 312 2 gusting 7 16.1